Content
SEND FEEDBACK

Daily
Averages
Monthly
Summary
Canada

LOCKSTON, NEWFOUNDLAND


Home > North America > Canada > Newfoundland
Elevation: 59 feet     Latitude: 48 24N     Longitude: 53 23W

WEATHER
 
SELECT A DAY
Number of Records: 134,545;   Date Range: 12/29/99 - 12/16/14
 
SHARE

PRINT THIS DATA

[ ← Previous Day ]
WEATHER ALMANAC - FEBRUARY 13, 2013
[ Next Day → ]
[ °C ]   °F
Weather ElementAverageHighLow
Temperature30.7 °F33.1 °F (1:30 pm)27.9 °F (11:30 pm)
Dewpoint30.1 °F31.6 °F (1:30 pm)26.6 °F (11:30 pm)
Humidity97.2 %100 % (1:30 am)89 % (2:30 pm)
Barometer29.12 in29.28 in (11:30 pm)29.04 in (12:30 pm)
Wind Speed7.7 mph15 mph (10:30 pm)
Wind Gust26.5 mph (10:30 pm)
Weather ElementAverage
Wind DirectionSW (221.1 °)

Weather ElementTotal
Precipitation0.49 in
Heating Degree Days34.5 (Base 65)
Averaged from 27 records on February 13, 2013
WEATHER CONDITIONS BREAKOUT
WIND DIRECTION BREAKOUT
WEATHER BY HOUR - FEBRUARY 13, 2013
[ °C ]   °F
Local TimeTemperatureDewpointHumidityBarometerVisibilityWind DirectionWind SpeedGust SpeedPrecipitationEventsConditions
1:30 AM30.4 °F30.4 °F100 %29.16 inESE (120°)8.1 mph18.4 mph
2:30 AM31.0 °F31.0 °F99 %29.13 inSE (130°)4.6 mph
2:30 AM30.7 °F30.7 °F100 %29.13 inSE (130°)4.6 mph
3:30 AM31.1 °F31.1 °F100 %29.09 inSSE (150°)5.8 mph0.04 in
4:30 AM31.5 °F31.5 °F100 %29.08 inSouth (190°)5.8 mph
5:30 AM31.3 °F31.3 °F100 %29.08 inSouth (180°)4.6 mph
6:30 AM31.1 °F31.1 °F100 %29.08 inSSW (200°)8.1 mph17.3 mph0.40 in
7:30 AM30.6 °F30.6 °F100 %29.07 inSSW (200°)9.2 mph
8:30 AM31.0 °F31.0 °F97 %29.07 inSouth (190°)8.1 mph
8:30 AM30.6 °F30.6 °F100 %29.07 inSouth (190°)8.1 mph
9:30 AM31.1 °F30.0 °F96 %29.06 inSouth (180°)5.8 mph
10:30 AM31.1 °F30.4 °F97 %29.07 inSouth (190°)3.5 mph
11:30 AM31.1 °F30.4 °F97 %29.06 inSouth (180°)3.5 mph
12:30 PM31.5 °F30.9 °F98 %29.04 inSSE (150°)2.3 mph
1:30 PM33.1 °F31.6 °F94 %29.04 inWSW (250°)5.8 mph0.03 in
2:30 PM33.0 °F31.0 °F89 %29.05 inWest (260°)9.2 mph
2:30 PM31.5 °F30.9 °F98 %29.05 inWest (260°)9.2 mph
3:30 PM31.5 °F31.5 °F100 %29.07 inWest (260°)6.9 mph
4:30 PM31.6 °F30.9 °F97 %29.09 inWNW (300°)9.2 mph
5:30 PM30.9 °F30.4 °F98 %29.12 inWNW (300°)8.1 mph
6:30 PM30.2 °F29.3 °F96 %29.15 inWNW (300°)9.2 mph21.9 mph0.02 in
7:30 PM29.7 °F28.6 °F96 %29.18 inWNW (290°)10.4 mph19.6 mph
8:30 PM29.0 °F28.0 °F94 %29.22 inWest (270°)9.2 mph
8:30 PM28.9 °F27.9 °F96 %29.22 inWest (270°)9.2 mph
9:30 PM28.6 °F27.1 °F94 %29.24 inWest (270°)10.4 mph18.4 mph
10:30 PM28.4 °F26.8 °F94 %29.26 inWest (280°)15.0 mph26.5 mph
11:30 PM27.9 °F26.6 °F95 %29.28 inWest (280°)15.0 mph24.2 mph
Hourly data recorded from CXTP, located miles away from Lockston, Newfoundland







STORIES FROM OUR PARTNERS